Lumberton, NC

3:33 PM EDT on October 18, 2017 (GMT -0400)
Lumberton Municipal

Weather History for KLBT - September, 2012

Change the Weather History Date:

Friday, September 14, 2012

  Actual Average Record
Temperature  
Mean Temperature 75 °F 74 °F  
Max Temperature 86 °F 84 °F 94 °F (2010)
Min Temperature 63 °F 63 °F 52 °F (2015)
Degree Days  
Heating Degree Days 0 0  
Month to date heating degree days 0 0  
Since 1 July heating degree days 0 0  
Cooling Degree Days 10 9  
Month to date cooling degree days 171 143  
Year to date cooling degree days 1895 1715  
Growing Degree Days 23 (Base 50)    
Moisture  
Dew Point 65 °F    
Average Humidity 78    
Maximum Humidity 100    
Minimum Humidity 55    
Precipitation  
Precipitation 0.00 in 0.14 in 0.81 in (2002)
Month to date precipitation 0.60 2.34  
Year to date precipitation 36.74 32.73  
Sea Level Pressure  
Sea Level Pressure 30.18 in    
Wind  
Wind Speed 3 mph (NNE)    
Max Wind Speed 9 mph    
Max Gust Speed 15 mph    
Visibility 10 miles    
Events      
T = Trace of Precipitation, MM = Missing Value Source: NWS Daily Summary

Daily Weather History Graph

Daily Weather History Graph

Search for Another Location

Airport or City:

Trip Planner

Search our weather history database for the weather conditions in past years. The results will help you decide how hot, cold, wet, or windy it might be!

Date:

Astronomy

Sep. 14, 2012 Rise Set
Actual Time 6:58 AM EDT 7:23 PM EDT
Civil Twilight 6:33 AM EDT 7:48 PM EDT
Nautical Twilight 6:03 AM EDT 8:18 PM EDT
Astronomical Twilight 5:33 AM EDT 8:48 PM EDT
Moon 5:23 AM EDT (9/14) 6:18 PM EDT (9/14)
Length of Visible Light 13h 15m
Length of Day
12h 24m
Waning Crescent, 3% of the Moon is Illuminated
Sep 14
Waning Crescent
Sep 15
New
Sep 22
First Quarter
Sep 29
Full
Oct 8
Last Quarter

Hourly Weather History & Observations

Time (EDT) Temp. Heat Index Dew Point Humidity Pressure Visibility Wind Dir Wind Speed Gust Speed Precip Events Conditions
12:54 AM 64.0 °F - 63.0 °F 96% 30.24 in 10.0 mi Calm Calm - N/A   Scattered Clouds
1:54 AM 66.0 °F - 63.0 °F 90% 30.23 in 10.0 mi Calm Calm - N/A   Clear
2:54 AM 64.0 °F - 63.0 °F 96% 30.22 in 10.0 mi Calm Calm - N/A   Clear
3:54 AM 64.9 °F - 63.0 °F 93% 30.22 in 10.0 mi North 3.5 mph - N/A   Partly Cloudy
4:54 AM 64.0 °F - 63.0 °F 96% 30.21 in 9.0 mi Calm Calm - N/A   Clear
5:54 AM 64.9 °F - 64.0 °F 97% 30.20 in 7.0 mi NNE 5.8 mph - N/A   Clear
6:54 AM 64.9 °F - 64.0 °F 97% 30.21 in 7.0 mi NNE 4.6 mph - N/A   Clear
7:54 AM 66.9 °F - 64.9 °F 93% 30.22 in 7.0 mi NNE 4.6 mph - N/A   Clear
8:54 AM 71.1 °F - 66.9 °F 87% 30.22 in 10.0 mi NE 4.6 mph - N/A   Clear
9:54 AM 75.9 °F - 66.9 °F 74% 30.22 in 10.0 mi NNE 4.6 mph - N/A   Clear
10:54 AM 79.0 °F - 68.0 °F 69% 30.22 in 10.0 mi Calm Calm - N/A   Scattered Clouds
11:54 AM 79.0 °F - 66.0 °F 64% 30.20 in 10.0 mi ENE 4.6 mph - N/A   Scattered Clouds
12:54 PM 82.0 °F 83.4 °F 64.0 °F 54% 30.18 in 10.0 mi NE 6.9 mph - N/A   Scattered Clouds
1:54 PM 82.0 °F 83.8 °F 64.9 °F 56% 30.17 in 10.0 mi Calm Calm - N/A   Partly Cloudy
2:54 PM 82.0 °F 84.1 °F 66.0 °F 58% 30.15 in 10.0 mi NNW 5.8 mph - N/A   Clear
3:54 PM 82.0 °F 84.1 °F 66.0 °F 58% 30.14 in 10.0 mi NNW 6.9 mph - N/A   Clear
4:54 PM 82.9 °F 84.6 °F 64.9 °F 54% 30.13 in 10.0 mi Variable 3.5 mph - N/A   Clear
5:54 PM 82.9 °F 84.4 °F 64.0 °F 53% 30.13 in 10.0 mi North 6.9 mph - N/A   Partly Cloudy
6:54 PM 80.1 °F 82.1 °F 66.0 °F 62% 30.13 in 10.0 mi North 3.5 mph - N/A   Clear
7:54 PM 71.1 °F - 68.0 °F 90% 30.14 in 10.0 mi Calm Calm - N/A   Clear
8:54 PM 70.0 °F - 66.9 °F 90% 30.16 in 10.0 mi Calm Calm - N/A   Partly Cloudy
9:54 PM 72.0 °F - 66.9 °F 84% 30.14 in 10.0 mi ENE 5.8 mph - N/A   Clear
10:54 PM 70.0 °F - 66.9 °F 90% 30.14 in 10.0 mi NNE 3.5 mph - N/A   Clear
11:54 PM 66.9 °F - 64.9 °F 93% 30.14 in 10.0 mi Calm Calm - N/A   Clear